Date,TemperatureHighF,TemperatureAvgF,TemperatureLowF,DewpointHighF,DewpointAvgF,DewpointLowF,HumidityHigh,HumidityAvg,HumidityLow,PressureMaxIn,PressureMinIn,WindSpeedMaxMPH,WindSpeedAvgMPH,GustSpeedMaxMPH,PrecipitationSumIn
2014-1-1,51.4,45.6,40.9,46.2,42.8,39.3,96,90,76,30.41,30.17,6,0,6,0.23
2014-1-2,57.4,50.9,45.7,56.3,49.4,40.3,96,95,78,30.18,29.70,11,1,13,0.83
2014-1-3,46.0,34.2,25.8,40.5,20.4,13.9,81,58,37,30.47,29.83,20,3,20,0.00
2014-1-4,48.6,38.1,26.5,39.7,28.4,15.8,87,68,58,30.48,30.31,9,2,9,0.00
2014-1-5,68.9,52.7,41.0,60.6,48.3,36.8,96,85,69,30.23,29.90,6,0,6,0.00
2014-1-6,63.2,48.5,25.4,61.5,37.2,6.0,96,68,35,30.32,29.79,20,3,20,0.01
2014-1-7,25.3,19.1,15.6,6.4,4.4,2.4,61,52,43,30.54,30.33,17,2,17,0.00
2014-1-8,47.8,32.3,20.0,25.2,18.7,12.6,86,60,30,30.65,30.53,8,2,8,0.00
2014-1-9,62.0,48.1,33.8,51.9,39.7,23.3,87,73,52,30.54,30.41,9,5,9,0.00
2014-1-10,72.4,62.2,53.7,67.7,60.0,50.4,96,93,79,30.39,30.10,14,2,14,0.18
2014-1-11,70.7,65.4,59.7,67.8,63.8,56.1,96,94,87,30.09,29.75,20,3,20,0.44
2014-1-12,63.9,52.2,37.7,57.1,41.7,35.1,95,71,36,30.25,29.82,8,1,8,0.00
2014-1-13,68.6,49.1,33.2,51.2,42.8,31.7,96,81,47,30.25,29.97,12,0,13,0.00
2014-1-14,64.6,55.1,40.7,59.2,52.6,39.6,96,92,66,30.04,29.85,11,1,11,0.46
2014-1-15,63.9,47.7,34.8,48.9,39.7,33.7,97,77,39,30.04,29.89,9,0,10,0.01
2014-1-16,51.2,42.4,31.2,38.0,30.9,26.3,85,65,42,30.13,29.95,13,1,13,0.00
2014-1-17,63.6,45.5,26.7,48.0,36.3,24.1,93,72,46,30.15,29.95,15,2,16,0.00
2014-1-18,50.4,40.4,29.6,36.1,21.5,17.1,78,48,32,30.19,29.98,14,2,15,0.00
2014-1-19,61.0,44.2,28.6,38.6,30.8,23.1,86,61,41,30.13,30.01,14,1,16,0.00
2014-1-20,68.8,55.9,36.4,41.0,33.0,24.6,87,48,20,30.08,29.93,13,2,14,0.00
2014-1-21,66.6,50.3,36.7,52.4,37.8,25.1,93,65,37,29.93,29.57,19,2,19,0.00
2014-1-22,44.9,36.1,24.3,28.2,22.6,17.6,79,59,37,30.19,29.84,11,1,11,0.00
2014-1-23,46.5,33.5,23.5,22.7,16.6,12.2,79,53,26,30.40,30.18,9,0,12,0.00
2014-1-24,34.0,28.3,16.4,19.7,7.1,-2.5,72,43,22,30.63,30.38,15,2,16,0.00
2014-1-25,55.6,36.4,13.3,40.5,23.2,8.4,93,63,28,30.37,29.83,19,1,25,0.00
2014-1-26,57.5,45.3,28.0,37.5,30.9,23.6,87,59,35,30.07,29.97,13,1,14,0.00
2014-1-27,69.3,54.6,39.9,52.1,45.1,35.3,86,71,50,30.02,29.87,12,1,13,0.00
2014-1-28,55.1,38.6,29.9,51.7,31.8,15.2,94,78,38,30.24,30.00,15,2,15,0.25
2014-1-29,30.9,27.6,25.5,29.4,25.1,22.4,94,90,84,30.40,30.13,8,1,8,0.00
2014-1-30,33.2,28.6,24.1,29.1,23.9,19.6,90,82,74,30.40,30.24,6,1,6,0.00
2014-1-31,59.9,42.7,31.8,41.7,34.9,27.7,94,76,45,30.30,30.17,4,0,4,0.01
2014-2-1,51.1,46.1,37.7,48.6,44.1,36.1,95,93,78,30.23,30.12,7,1,8,0.19
2014-2-2,73.0,56.0,46.1,58.2,50.7,43.6,96,84,57,30.22,30.09,9,0,9,0.00
2014-2-3,75.1,66.9,56.2,67.7,62.9,55.1,96,87,74,30.14,30.01,14,2,15,0.00
2014-2-4,63.0,52.0,47.3,60.9,48.3,44.9,96,87,79,30.29,30.10,10,2,10,0.03
2014-2-5,78.5,60.9,47.4,68.6,54.0,39.6,96,80,51,30.10,29.88,16,2,16,0.05
2014-2-6,54.5,46.2,39.2,40.6,35.6,32.7,89,68,47,30.34,30.08,9,2,16,0.06
2014-2-7,55.9,44.3,35.5,39.5,37.0,33.9,95,77,52,30.37,30.25,8,1,8,0.00
2014-2-8,52.3,44.0,35.7,43.5,38.8,34.3,95,83,64,30.31,30.14,9,1,11,0.11
2014-2-9,67.0,47.5,31.8,47.1,39.1,29.6,96,76,43,30.23,30.04,11,1,11,0.01
2014-2-10,69.0,51.0,37.1,49.6,43.2,35.0,96,77,47,30.16,30.05,7,1,7,0.00
2014-2-11,49.1,38.9,32.5,43.6,35.9,31.0,95,89,74,30.34,30.14,17,2,17,0.32
2014-2-12,32.8,31.1,29.5,31.5,29.6,27.6,95,94,91,30.33,30.18,12,6,12,0.12
2014-2-17,61.8,46.2,33.3,47.3,39.7,32.0,95,80,51,30.33,30.18,14,4,14,0.00
2014-2-18,76.3,58.1,43.4,54.5,49.4,42.1,95,76,42,30.27,30.16,8,3,8,0.00
2014-2-19,82.2,65.7,56.2,57.1,51.4,39.3,94,66,22,30.17,30.02,19,8,19,0.00
2014-2-20,80.2,65.5,53.1,65.3,59.0,51.0,95,81,52,30.21,30.09,20,6,20,0.00
2014-2-21,70.1,65.2,52.2,67.1,62.4,50.8,95,91,84,30.09,29.94,27,10,27,0.25
2014-2-22,70.2,43.5,-90.0,50.0,31.7,-90.0,100,69,35,30.19,30.07,8,3,8,0.01
2014-2-23,70.7,61.6,40.4,55.2,51.5,38.8,94,71,48,30.14,29.99,5,0,5,0.00
2014-2-24,71.7,60.1,51.5,57.2,52.4,42.3,96,79,36,30.14,29.96,12,1,13,0.00
2014-2-25,78.0,66.8,48.0,56.6,48.7,42.8,95,56,34,30.11,29.92,18,2,18,0.00
2014-2-26,56.3,49.2,39.5,50.4,46.3,37.6,95,90,73,29.94,29.77,12,4,12,0.66
2014-2-27,62.0,48.5,35.7,42.0,37.3,31.7,96,69,34,30.00,29.85,9,1,10,0.00
2014-2-28,57.2,43.9,29.0,42.7,34.9,25.0,95,73,48,30.24,30.00,11,1,11,0.00
2014-3-1,55.2,48.7,43.7,45.4,42.6,40.4,92,80,69,30.35,30.22,8,1,8,0.05
2014-3-2,75.0,54.9,37.4,50.8,43.8,35.3,96,71,38,30.28,30.05,12,1,12,0.00
2014-3-3,72.7,57.8,36.4,62.0,51.6,33.6,94,81,56,30.16,29.87,23,2,23,0.07
2014-3-4,36.9,34.9,31.3,33.8,28.8,26.3,90,79,70,30.29,30.15,15,2,18,0.00
2014-3-5,42.4,39.3,35.8,40.6,35.9,28.6,94,88,72,30.24,30.14,8,1,8,0.12
2014-3-6,41.9,40.2,37.7,40.7,37.6,33.8,96,90,79,30.23,29.86,11,3,17,1.25
2014-3-7,44.9,42.2,40.0,42.4,40.7,38.7,96,94,88,30.07,29.79,10,3,18,0.20
2014-3-8,70.5,51.8,34.0,49.6,42.9,32.0,96,75,43,30.19,30.05,11,1,11,0.01
2014-3-9,78.2,60.8,45.9,50.5,47.3,43.0,93,66,35,30.17,30.03,8,1,8,0.00
2014-3-10,80.2,62.4,48.5,52.2,47.6,41.5,92,63,34,30.08,29.88,12,1,12,0.00
2014-3-11,83.3,65.0,47.2,56.8,51.8,44.6,92,66,33,29.93,29.75,21,2,21,0.00
2014-3-12,75.0,66.2,55.1,62.7,57.2,39.2,95,74,51,29.80,29.50,17,2,19,0.10
2014-3-13,56.7,49.0,35.4,38.7,25.5,16.4,78,42,22,30.28,29.75,20,3,20,0.00
2014-3-14,65.6,47.6,28.2,43.4,33.7,25.5,94,64,24,30.40,30.21,14,1,15,0.00
2014-3-15,75.1,58.3,45.6,49.7,44.4,35.2,89,65,25,30.22,30.05,11,1,11,0.00
2014-3-16,67.3,56.9,53.0,62.3,53.5,46.3,96,88,77,30.09,29.76,8,0,9,0.73
2014-3-17,59.3,49.3,40.6,59.3,48.3,39.5,100,96,93,29.90,29.70,15,1,19,0.37
2014-3-18,46.7,41.8,37.7,42.2,39.4,35.1,96,91,84,30.16,29.82,17,3,17,0.01
2014-3-19,59.9,47.1,42.5,50.2,44.2,40.0,96,90,70,30.22,30.07,6,0,6,0.01
2014-3-20,76.7,58.9,43.4,54.7,46.7,39.2,96,70,29,30.11,29.97,11,1,13,0.00
2014-3-21,73.5,56.2,40.8,47.3,39.2,31.9,95,59,26,30.20,30.06,11,1,11,0.00
2014-3-22,79.5,61.7,46.5,64.2,55.6,44.5,95,82,54,30.13,29.99,12,1,12,0.00
2014-3-23,78.0,64.3,51.7,64.2,55.2,44.1,96,75,44,30.10,29.88,22,1,22,0.00
2014-3-24,59.7,49.2,41.8,44.6,37.3,27.5,88,65,40,30.26,30.08,11,2,13,0.00
2014-3-25,62.7,49.8,42.3,53.9,40.4,22.0,95,73,37,30.09,29.77,19,2,22,0.30
2014-3-26,57.5,43.4,31.7,28.4,21.1,15.3,79,44,20,30.37,30.07,15,2,15,0.00
2014-3-27,63.4,47.5,29.7,47.9,37.5,26.8,93,71,41,30.49,30.33,12,1,12,0.00
2014-3-28,74.0,59.1,44.9,63.6,55.3,43.2,95,88,69,30.33,30.10,17,1,17,0.05
2014-3-29,78.3,67.6,61.4,68.3,63.2,56.8,96,86,68,30.10,29.72,13,1,13,0.53
2014-3-30,68.0,57.8,46.9,56.8,38.5,26.0,76,52,22,30.06,29.75,19,3,20,0.00
2014-3-31,79.6,56.2,34.8,46.1,35.5,22.6,95,56,14,30.18,30.06,10,1,11,0.00
2014-4-1,86.5,62.0,40.9,49.5,43.6,36.7,95,59,18,30.20,30.09,14,1,14,0.00
2014-4-2,88.3,66.7,47.1,54.1,49.4,42.4,95,60,21,30.20,30.09,14,1,15,0.00
2014-4-3,88.3,70.2,57.3,59.6,56.5,51.6,93,66,32,30.15,30.01,17,2,17,0.00
2014-4-4,86.5,72.8,61.6,62.5,60.3,54.6,93,68,35,30.02,29.91,20,2,23,0.00
2014-4-5,85.5,71.9,61.9,63.9,60.9,58.1,91,71,41,30.03,29.92,14,1,15,0.00
2014-4-6,64.7,60.7,54.4,61.0,54.1,49.1,92,79,66,30.13,29.99,8,1,8,0.02
2014-4-7,78.8,64.1,54.3,69.3,60.6,51.8,96,89,69,30.03,29.78,16,1,16,0.79
2014-4-8,76.0,66.7,57.8,65.0,60.1,51.1,96,81,53,29.79,29.63,12,1,12,0.08
2014-4-9,75.5,61.4,50.2,52.8,46.6,40.3,88,63,31,30.15,29.71,15,1,15,0.00
2014-4-10,52.4,50.2,47.9,48.9,47.8,46.3,94,91,87,30.17,30.15,0,0,0,0.00
2014-4-11,79.8,64.5,49.5,58.5,52.4,48.1,95,69,37,30.34,30.18,16,5,16,0.00
2014-4-12,84.6,68.0,52.9,62.3,57.0,51.5,95,71,42,30.27,30.16,13,2,13,0.00
2014-4-13,82.7,67.9,54.8,65.1,58.7,53.2,96,76,44,30.25,30.13,12,1,13,0.00
2014-4-14,82.5,70.4,61.5,70.0,65.3,59.1,95,85,59,30.14,29.87,14,1,15,0.01
2014-4-15,73.5,68.5,54.3,70.6,65.7,48.6,95,91,79,29.99,29.67,19,2,19,0.58
2014-4-16,63.1,50.1,40.8,48.6,37.1,30.4,85,62,37,30.40,29.99,14,2,17,0.00
2014-4-17,71.7,54.6,41.2,52.2,44.4,32.9,89,70,48,30.48,30.33,13,1,13,0.00
2014-4-18,67.9,57.9,52.6,58.6,53.3,47.1,96,85,64,30.37,30.04,13,2,13,2.67
2014-4-19,60.6,56.8,52.4,59.1,55.4,51.0,96,95,92,30.09,29.95,15,2,15,0.13
2014-4-20,66.0,58.0,50.4,54.9,52.0,48.8,96,82,63,30.14,30.05,18,2,20,0.21
2014-4-21,78.2,64.0,52.6,57.0,51.8,46.9,93,66,42,30.13,29.98,12,2,13,0.00
2014-4-22,86.6,66.2,47.8,63.4,56.1,46.4,96,75,38,29.98,29.75,14,1,14,0.07
2014-4-23,87.0,70.3,57.7,63.9,58.6,50.9,96,72,31,29.95,29.78,9,1,10,0.00
2014-4-24,78.8,64.4,51.6,60.2,54.7,49.5,96,73,45,30.09,29.95,8,1,10,0.00
2014-4-25,87.5,71.2,57.2,68.2,61.8,55.8,95,75,41,30.01,29.81,16,1,16,0.00
2014-4-26,83.8,68.0,55.7,63.9,54.9,43.4,95,67,31,30.06,29.90,11,0,11,0.00
2014-4-27,88.7,67.5,52.6,65.6,57.6,50.1,95,76,40,30.07,29.95,11,1,11,0.00
2014-4-28,88.2,77.9,65.1,73.8,69.5,63.6,95,77,60,30.01,29.88,18,2,18,0.00
2014-4-29,84.3,76.2,69.1,74.1,71.1,67.0,95,85,66,30.03,29.88,16,2,16,0.00
2014-4-30,78.3,73.2,67.5,74.0,69.8,66.0,95,89,77,30.08,29.93,13,1,13,1.29
2014-5-1,80.1,71.5,65.4,69.1,66.7,60.8,95,85,65,30.01,29.90,10,1,10,0.00
2014-5-2,68.2,63.7,59.0,61.1,57.9,54.3,93,82,68,29.99,29.92,6,0,6,0.00
2014-5-3,81.4,69.2,55.5,58.9,53.8,47.3,93,62,31,30.01,29.92,12,1,13,0.00
2014-5-4,89.7,69.1,52.0,57.7,52.2,48.1,93,60,28,30.08,29.95,12,1,12,0.00
2014-5-5,95.9,76.6,58.7,64.8,58.3,53.4,84,58,27,30.02,29.89,10,1,11,0.00
2014-5-6,94.0,78.1,64.1,66.1,61.6,57.5,83,61,31,30.01,29.92,13,1,13,0.00
2014-5-7,94.3,75.8,59.3,64.9,61.1,57.2,95,65,30,30.17,30.01,12,1,12,0.00
2014-5-8,93.9,75.0,58.8,72.0,65.1,57.1,95,75,36,30.26,30.15,10,1,10,0.00
2014-5-9,91.5,76.0,65.2,71.6,67.9,60.9,95,79,44,30.24,30.13,12,1,12,0.00
2014-5-10,86.9,76.7,69.2,72.2,69.4,67.0,95,80,56,30.19,30.08,17,2,17,0.00
2014-5-11,88.8,76.6,68.9,74.0,70.4,66.5,95,82,56,30.18,30.10,10,0,10,0.06
2014-5-12,92.8,77.6,68.0,75.2,69.7,66.0,95,79,50,30.24,30.14,12,1,12,0.00
2014-5-13,91.4,76.8,65.5,71.3,68.3,63.9,95,78,45,30.21,30.13,10,1,10,0.00
2014-5-14,86.7,75.1,62.3,71.7,67.6,60.8,95,79,53,30.19,30.08,7,1,9,0.00
2014-5-15,78.8,74.2,69.8,74.2,71.4,68.3,95,91,82,30.09,29.86,15,2,19,1.86
2014-5-16,78.4,66.0,54.1,68.7,54.2,46.3,95,70,34,30.12,29.91,12,1,12,0.00
2014-5-17,79.7,64.5,48.2,54.6,48.6,42.4,92,60,32,30.24,30.11,9,0,9,0.00
2014-5-18,76.7,64.4,53.0,60.0,56.2,51.3,95,76,49,30.24,30.17,9,0,9,0.00
2014-5-19,78.3,64.6,53.3,58.8,54.4,48.8,95,72,46,30.30,30.21,7,0,7,0.04
2014-5-20,84.3,65.3,48.9,58.6,53.0,47.0,95,69,33,30.33,30.20,13,1,13,0.00
2014-5-21,91.5,73.2,56.0,70.8,62.6,54.1,95,72,44,30.21,30.04,13,1,17,0.00
2014-5-22,96.3,79.9,66.7,69.5,65.8,62.6,93,66,36,30.07,29.93,11,1,12,0.00
2014-5-23,98.7,81.3,66.3,74.4,68.5,63.1,92,68,37,30.03,29.94,7,1,7,0.00
2014-5-24,86.9,75.2,66.6,66.4,62.4,56.9,91,67,40,30.13,29.99,9,1,10,0.00
2014-5-25,87.0,74.4,65.9,68.3,63.8,56.2,93,72,41,30.22,30.11,7,0,7,0.00
2014-5-26,89.2,75.6,67.0,71.3,66.8,63.6,93,76,48,30.27,30.16,9,1,13,0.20
2014-5-27,90.7,76.5,65.4,76.5,70.3,63.5,95,82,56,30.20,30.04,12,1,13,0.00
2014-5-28,93.2,79.7,69.4,74.5,70.6,65.7,95,76,49,30.09,29.99,13,1,13,0.00
2014-5-29,95.5,78.8,66.6,75.5,68.9,64.2,95,74,44,30.11,29.98,11,1,11,0.00
2014-5-30,86.5,75.3,68.3,74.7,70.2,65.9,94,85,61,30.11,30.02,8,0,8,0.02
2014-5-31,83.3,72.7,67.6,76.0,70.2,65.5,95,92,76,30.17,30.08,8,0,8,0.26
2014-6-1,83.5,72.9,59.6,67.3,60.5,51.8,93,68,39,30.29,30.16,11,1,12,0.00
2014-6-2,85.2,65.2,-90.0,66.5,56.5,-91.1,93,76,50,30.28,30.17,7,0,8,0.00
2014-6-3,88.7,74.6,63.4,70.6,65.7,61.3,95,76,47,30.18,30.01,11,1,11,0.00
2014-6-4,93.3,77.7,64.5,73.2,68.3,61.8,93,75,48,30.02,29.88,15,1,15,0.00
2014-6-5,94.3,81.3,72.2,77.3,72.2,66.7,88,75,54,29.93,29.80,13,2,14,0.00
2014-6-6,88.8,78.1,72.3,77.4,73.2,70.0,94,85,66,29.96,29.86,8,0,8,0.06
2014-6-7,90.2,74.4,66.7,75.5,70.7,64.9,95,89,57,30.00,29.90,6,0,6,2.09
2014-6-8,83.7,73.6,65.6,75.1,70.4,63.8,95,90,70,30.01,29.91,10,0,10,0.70
2014-6-9,96.4,82.2,72.2,78.4,74.2,70.7,95,79,48,29.99,29.86,8,1,8,0.00
2014-6-10,106.7,85.3,73.7,99.9,75.8,69.8,100,77,43,30.00,29.93,10,1,11,0.00
2014-6-11,94.6,81.2,70.7,76.2,72.5,68.8,94,77,50,30.00,29.89,11,1,12,0.00
2014-6-12,75.7,74.2,73.2,72.6,71.6,71.0,94,92,90,29.92,29.90,1,0,1,0.00
2014-6-13,92.2,79.2,71.0,74.7,71.0,67.9,94,78,51,29.93,29.86,13,6,13,0.16
2014-6-14,93.8,77.2,70.4,75.1,71.4,68.9,95,84,49,30.06,29.93,11,3,11,0.08
2014-6-15,94.5,79.5,69.8,77.0,72.5,68.3,95,81,50,30.16,30.04,7,2,7,0.00
2014-6-16,92.8,80.1,72.2,77.5,73.0,70.4,94,81,54,30.20,30.14,6,2,6,0.00
2014-6-17,93.7,76.9,67.8,75.0,69.9,64.9,95,81,46,30.23,30.13,9,1,9,0.00
2014-6-18,95.2,79.1,66.2,74.0,70.1,64.7,95,77,44,30.20,30.11,9,1,9,0.00
2014-6-19,96.0,82.8,69.0,76.8,72.2,67.2,95,73,46,30.18,30.06,11,1,13,0.00
2014-6-20,98.0,82.2,70.5,79.7,72.8,67.8,93,75,46,30.08,29.94,12,1,12,0.00
2014-6-21,98.7,82.8,73.3,77.8,74.3,71.5,94,78,46,29.99,29.79,11,1,12,0.01
2014-6-22,94.8,79.0,71.8,76.8,73.0,69.0,95,83,53,29.95,29.82,11,0,11,0.01
2014-6-23,85.0,74.3,69.9,78.4,71.5,68.2,95,91,75,30.10,29.93,11,0,11,4.45
2014-6-24,91.7,80.2,72.8,77.0,74.0,70.9,95,83,59,30.13,30.02,12,1,12,0.00
2014-6-25,95.1,81.1,71.4,79.8,74.2,69.0,93,81,50,30.10,29.96,11,1,11,0.13
2014-6-26,98.0,84.5,74.2,77.6,73.9,69.6,93,73,44,30.05,29.93,8,1,8,0.00
2014-6-27,93.6,81.0,73.4,78.1,72.9,70.3,94,78,55,30.07,29.98,12,1,12,0.85
2014-6-28,89.2,77.7,72.8,76.7,73.3,70.2,95,87,64,30.18,30.05,9,1,10,0.01
2014-6-29,88.8,78.4,72.2,77.6,73.1,70.1,94,85,64,30.19,30.11,8,0,9,0.04
2014-6-30,94.3,79.5,69.2,75.2,70.6,66.7,95,76,47,30.15,29.99,8,0,8,0.00
2014-7-1,96.0,81.4,70.3,77.6,71.6,67.4,94,75,50,30.03,29.94,7,0,8,0.00
2014-7-2,95.0,82.8,72.4,78.5,74.5,70.6,94,78,53,30.01,29.96,9,0,11,0.00
2014-7-3,86.4,79.0,72.4,75.9,73.4,70.2,94,84,63,29.98,29.84,15,2,17,0.21
2014-7-4,96.5,82.7,71.4,76.1,71.3,61.8,94,72,36,30.12,29.95,8,0,9,0.00
2014-7-5,85.8,78.1,72.3,73.8,70.2,65.7,87,77,66,30.22,30.11,10,1,10,0.00
2014-7-6,86.0,76.8,70.2,76.3,72.0,67.8,93,86,68,30.17,30.07,7,0,7,0.01
2014-7-7,92.5,79.6,67.8,78.3,72.9,66.0,95,82,59,30.11,30.01,13,1,14,0.00
2014-7-8,98.3,83.7,75.0,78.4,74.8,69.5,94,77,40,30.11,30.00,12,2,12,0.00
2014-7-9,96.4,83.6,74.8,77.6,75.0,70.5,92,77,48,30.08,30.00,15,1,15,0.00
2014-7-10,79.4,78.8,78.2,76.2,75.9,74.4,92,91,88,30.07,30.03,4,0,4,0.00
2014-8-23,99.6,86.5,76.5,78.9,76.7,72.6,94,75,44,29.97,29.85,9,3,9,0.00
2014-8-24,86.5,79.6,75.0,75.3,72.5,67.1,94,80,63,30.02,29.88,13,6,13,0.00
2014-8-25,83.9,74.8,65.4,70.8,66.1,60.8,85,75,61,30.05,30.00,14,8,14,0.00
2014-8-26,87.2,77.2,69.2,69.6,67.3,64.8,86,73,53,30.08,30.02,12,6,12,0.00
2014-8-27,89.6,75.1,63.6,68.2,65.0,59.9,93,74,38,30.06,29.98,11,4,11,0.00
2014-8-28,95.0,76.5,62.8,70.4,65.9,61.0,95,74,35,30.08,29.99,10,3,10,0.00
2014-8-29,93.6,78.2,64.6,77.4,72.8,62.8,95,84,52,30.15,30.05,10,1,10,0.00
2014-8-30,74.2,72.7,71.5,72.3,71.1,70.0,95,95,94,30.16,30.14,0,0,0,0.00
2014-8-31,96.4,81.6,72.2,78.5,74.7,70.7,95,81,53,30.18,30.07,8,2,8,0.00
2014-9-1,97.3,83.3,74.9,79.9,77.0,73.4,95,83,53,30.15,30.07,9,1,10,0.02
2014-9-2,95.7,83.8,74.9,79.5,76.3,73.0,95,80,57,30.12,30.01,9,1,11,0.00
2014-9-3,94.6,81.8,72.8,77.1,74.2,71.3,95,79,55,30.11,30.03,8,1,11,0.00
2014-9-4,91.3,88.8,84.9,78.4,75.5,74.2,81,65,60,30.14,30.11,4,1,8,0.06
2014-9-7,88.5,81.6,75.4,79.9,75.8,72.6,93,83,68,30.04,29.95,12,1,14,0.64
2014-9-8,83.3,75.5,73.0,77.7,73.6,71.6,98,94,81,30.09,29.99,7,1,11,2.32
2014-9-9,81.8,75.0,70.4,73.3,71.2,68.9,95,88,74,30.14,30.06,8,0,9,0.00
2014-9-10,89.3,76.8,68.9,75.9,71.4,66.9,95,84,60,30.14,30.05,5,0,5,0.00
2014-9-11,93.3,84.3,76.2,78.5,76.4,74.0,93,78,59,30.06,29.99,8,1,8,0.00
2014-9-12,76.2,75.5,74.7,74.2,73.7,73.2,95,94,93,30.04,30.03,0,0,0,0.00
2014-9-13,91.1,80.8,73.0,79.5,76.3,71.2,95,87,67,30.14,30.03,8,0,8,0.01
2014-9-14,85.5,76.3,71.0,78.4,73.6,69.5,95,92,74,30.22,30.09,9,0,11,0.83
2014-9-15,86.2,74.0,68.8,77.2,71.2,67.0,95,91,71,30.23,30.12,6,0,7,2.76
2014-9-16,90.8,75.3,70.7,78.3,72.4,69.2,95,91,63,30.14,29.95,6,0,8,1.46
2014-9-17,86.3,73.7,67.7,75.8,70.0,66.2,95,89,69,29.98,29.88,6,0,9,0.02
2014-9-18,85.6,74.2,67.1,74.1,69.4,65.3,95,86,65,30.02,29.91,9,0,9,0.00
2014-9-19,82.0,71.7,67.4,74.1,69.0,65.3,95,92,70,30.15,30.01,9,0,12,0.20
2014-9-20,74.2,70.7,67.7,68.8,67.3,65.3,95,89,82,30.14,29.96,13,1,14,0.00
2014-9-21,90.2,75.5,63.8,69.9,66.2,61.6,93,75,47,30.02,29.91,6,1,8,0.00
2014-9-22,88.4,72.3,66.7,73.7,67.5,63.9,95,86,60,30.15,29.96,11,0,15,1.22
2014-9-23,68.9,64.2,60.2,67.3,62.4,57.6,95,94,91,30.22,30.07,12,1,12,0.32
2014-9-24,66.0,61.7,56.8,62.7,59.7,55.7,96,93,87,30.23,30.17,14,2,14,0.12
2014-9-25,75.7,68.9,63.7,71.9,67.0,62.2,98,94,87,30.21,30.11,8,1,9,0.01
2014-9-26,74.8,69.3,65.6,69.3,66.6,64.1,96,91,82,30.16,30.09,9,1,13,0.04
2014-9-27,79.3,70.3,65.5,71.8,67.3,63.4,96,90,75,30.16,30.10,8,1,11,0.01
2014-9-28,78.2,72.5,68.7,74.0,70.2,66.5,95,92,86,30.14,30.05,7,0,7,0.10
2014-9-29,72.6,69.0,64.1,71.1,67.6,62.9,96,95,95,30.06,29.95,6,0,7,0.54
2014-9-30,81.4,69.9,62.6,68.7,64.7,61.0,96,85,62,29.95,29.86,8,1,8,0.04
2014-10-1,85.7,70.6,60.3,71.6,65.1,58.9,96,84,53,30.06,29.92,6,0,9,0.00
2014-10-2,87.3,70.0,59.6,71.8,64.4,58.7,98,85,50,30.16,30.06,3,0,4,0.00
2014-10-3,84.7,72.2,62.1,73.8,68.2,60.7,96,88,67,30.10,29.88,14,5,14,0.02
2014-10-4,78.8,70.2,55.4,70.4,53.4,39.8,95,60,27,29.96,29.78,11,1,12,0.00
2014-10-5,71.8,56.6,43.6,50.6,43.9,38.6,95,67,32,30.10,29.96,9,0,10,0.00
2014-10-6,79.3,60.9,46.3,57.1,50.7,44.5,96,74,32,30.18,30.08,8,0,10,0.00
2014-10-7,84.3,67.8,54.7,69.4,61.5,53.1,96,82,52,30.18,30.07,10,0,10,0.00
2014-10-8,89.4,75.1,64.9,74.3,68.9,63.1,95,83,57,30.16,30.03,12,1,12,0.00
2014-10-9,84.9,72.2,61.5,69.1,63.7,59.6,96,78,45,30.18,30.08,4,0,4,0.00
2014-10-10,89.7,72.2,58.2,71.6,65.2,56.7,97,81,52,30.16,30.06,9,0,9,0.00
2014-10-11,91.3,75.3,64.3,74.8,69.2,62.8,98,84,54,30.10,29.99,10,1,10,0.00
2014-10-12,87.0,74.6,67.5,74.4,70.3,66.0,95,87,63,30.19,30.03,4,0,5,0.00
2014-10-13,87.8,76.1,69.0,76.4,71.8,67.5,95,87,66,30.22,30.11,8,0,8,0.00
2014-10-14,86.0,75.7,68.8,75.0,71.4,67.0,95,87,67,30.11,29.94,19,1,20,0.67
2014-10-15,77.8,69.6,57.6,71.3,63.8,55.9,96,83,54,29.95,29.87,8,0,8,0.07
2014-10-16,75.3,63.4,54.2,58.4,55.2,53.0,96,77,49,29.96,29.85,14,1,14,0.00
2014-10-17,79.0,61.7,49.6,62.3,55.1,47.5,96,82,49,30.02,29.91,7,0,9,0.00
2014-10-18,84.3,68.1,57.1,66.2,58.9,53.7,95,75,44,29.92,29.81,13,1,13,0.00
2014-10-19,71.3,60.3,50.2,55.7,51.6,48.1,95,75,50,30.16,29.92,13,1,13,0.00
2014-10-20,79.7,61.3,47.6,63.0,55.2,45.6,96,82,53,30.18,30.01,8,0,8,0.00
2014-10-21,80.5,66.3,57.2,60.1,58.1,55.4,96,78,46,30.02,29.89,9,0,10,0.00
2014-10-22,69.4,58.6,48.5,55.9,47.9,44.6,95,70,45,30.11,29.95,9,1,16,0.00
2014-10-23,71.3,56.2,44.5,52.8,47.3,42.3,95,75,45,30.14,30.01,8,0,8,0.00
2014-10-24,76.2,57.3,44.6,55.6,49.6,43.3,96,79,41,30.11,29.99,5,0,5,0.00
2014-10-25,77.2,58.6,46.4,55.7,50.1,44.7,96,78,38,30.07,29.97,9,0,9,0.00
2014-10-26,85.8,62.9,47.1,64.1,54.7,45.6,96,79,37,30.01,29.92,6,0,6,0.00
2014-10-27,88.1,66.5,52.8,65.5,58.8,51.6,96,80,43,30.15,30.00,5,0,5,0.00
2014-10-28,85.2,69.7,60.6,71.5,63.2,58.9,96,82,47,30.21,30.12,10,1,10,0.01
2014-10-29,83.2,70.5,63.9,68.5,64.8,62.3,96,84,53,30.14,29.98,12,1,12,0.00
2014-10-30,71.2,63.7,53.4,65.1,59.0,52.1,96,86,65,30.04,29.96,9,1,9,0.00
2014-10-31,70.3,58.3,50.3,54.3,50.6,44.1,96,79,41,29.96,29.81,8,0,10,0.02
2014-11-1,53.2,45.3,38.3,51.4,42.8,35.1,95,91,75,30.09,29.73,16,1,16,0.26
2014-11-2,56.1,44.1,35.4,39.3,35.6,31.4,95,75,42,30.38,30.09,13,1,19,0.00
2014-11-3,65.8,45.2,32.5,43.7,35.0,30.2,96,74,29,30.51,30.38,6,0,7,0.00
2014-11-4,72.6,52.0,34.6,58.3,45.9,33.3,96,82,50,30.47,30.32,5,0,5,0.00
2014-11-5,78.6,62.3,50.0,64.9,57.2,48.6,96,85,58,30.35,30.22,7,0,7,0.00
2014-11-6,78.0,65.9,56.5,67.0,61.0,55.0,96,85,66,30.22,29.88,18,1,18,0.00
2014-11-7,65.2,54.8,41.0,57.8,41.7,37.7,95,64,40,30.09,29.90,11,1,12,0.00
2014-11-8,69.7,52.5,37.4,55.5,47.4,35.6,96,84,57,30.10,29.97,7,0,7,0.00
2014-11-9,67.5,57.3,48.1,54.6,51.5,46.6,96,82,59,30.05,29.93,8,1,8,0.00
2014-11-10,64.8,55.0,46.7,50.5,47.6,45.0,96,78,53,30.13,29.97,11,1,11,0.00
2014-11-11,75.8,62.9,55.0,66.1,57.5,49.1,96,83,71,29.97,29.90,12,1,12,0.00
2014-11-12,56.7,54.3,52.0,55.5,53.2,50.3,96,96,95,29.97,29.96,0,0,0,0.00
2014-11-13,76.1,61.9,53.7,61.7,56.2,47.9,96,82,61,30.07,29.97,8,2,8,0.00
2014-11-14,54.8,47.4,38.0,46.3,39.8,29.4,83,75,68,30.32,30.02,14,6,14,0.00
2014-11-15,51.3,39.8,31.8,33.0,28.3,22.4,89,66,38,30.47,30.31,11,4,11,0.00
2014-11-16,53.5,50.9,41.3,52.0,48.6,30.9,96,92,64,30.35,30.10,7,1,7,0.32
2014-11-17,75.7,60.7,46.2,69.8,58.0,40.6,96,91,79,30.10,29.76,23,2,23,0.08
2014-11-18,48.7,39.9,25.7,40.7,28.3,20.8,93,65,36,30.40,29.99,12,2,12,0.00
2014-11-19,52.2,34.1,22.9,29.3,23.5,18.6,95,71,27,30.49,30.34,8,0,9,0.00
2014-11-20,29.4,28.2,27.8,27.9,26.9,26.3,95,95,93,30.35,30.33,0,0,0,0.00
2014-11-21,65.5,47.5,37.2,44.1,38.5,32.5,95,73,30,30.50,30.27,11,1,11,0.00
2014-11-22,67.1,50.5,35.5,52.2,42.6,31.1,94,76,48,30.56,30.30,7,0,7,0.00
2014-11-23,70.6,61.2,53.7,69.1,59.7,52.0,96,95,94,30.30,29.80,15,1,15,1.92
2014-11-24,78.3,67.6,63.8,72.9,65.6,62.6,96,94,82,30.04,29.83,15,1,15,0.22
2014-11-25,65.1,62.3,60.2,63.8,61.0,59.1,96,95,93,30.13,29.90,10,0,10,0.76
2014-11-26,61.2,53.7,42.8,60.1,51.7,41.7,96,93,77,30.16,29.81,8,1,11,0.19
2014-11-27,56.9,45.4,38.2,41.7,36.5,32.3,96,74,43,30.33,30.11,16,1,16,0.00
2014-11-28,49.9,38.8,30.8,33.7,29.3,24.9,95,71,43,30.44,30.33,16,1,17,0.00
2014-11-29,61.4,42.2,28.3,41.1,33.6,27.0,96,76,35,30.43,30.32,7,0,8,0.00
2014-11-30,72.8,51.4,34.8,55.6,45.1,33.3,97,82,43,30.43,30.33,10,1,10,0.00
2014-12-1,76.0,56.4,43.2,60.1,50.6,41.5,96,83,52,30.47,30.35,9,0,9,0.00
2014-12-2,73.3,59.4,49.9,63.5,56.8,48.8,96,92,64,30.38,30.30,5,0,5,0.24
2014-12-3,70.5,58.9,55.0,63.6,57.0,53.9,96,93,78,30.34,30.24,6,0,6,0.00
2014-12-4,63.4,56.9,53.1,61.0,55.1,52.0,96,94,87,30.38,30.27,6,0,6,0.01
2014-12-5,64.1,54.9,48.7,54.9,51.4,47.3,96,89,70,30.47,30.34,6,0,6,0.00
2014-12-6,73.5,60.2,50.4,65.7,57.1,48.4,96,90,74,30.34,30.08,7,0,7,0.03
2014-12-7,62.2,53.7,47.0,61.0,47.2,37.8,96,79,67,30.36,30.08,16,2,16,0.00
2014-12-8,47.0,43.8,42.6,42.3,38.9,34.8,95,83,67,30.35,30.15,13,2,15,0.19
2014-12-9,55.9,46.4,40.6,44.4,40.8,38.3,93,82,60,30.15,29.97,11,2,13,0.00
2014-12-10,57.8,45.3,34.3,39.7,35.8,32.8,94,72,43,30.14,30.03,10,1,10,0.00
2014-12-11,34.7,32.8,30.5,33.4,31.5,28.0,95,95,94,30.10,30.07,1,0,1,0.00
2014-12-23,54.2,49.2,45.3,53.1,48.1,44.0,96,96,95,30.07,29.95,5,3,5,0.80
2014-12-24,70.2,61.7,52.0,68.7,60.8,50.9,100,97,94,29.94,29.78,29,6,29,0.61
2014-12-25,65.2,55.3,39.4,63.7,48.8,38.4,96,80,52,30.30,29.81,13,5,13,0.01
2014-12-26,66.3,47.0,34.7,48.9,41.3,33.4,96,83,48,30.38,30.28,6,1,6,0.00
2014-12-27,68.8,51.4,38.7,55.5,46.4,37.7,96,85,58,30.39,30.25,6,1,6,0.00
2014-12-28,77.1,61.5,49.8,67.5,57.9,47.9,95,88,71,30.24,30.05,13,3,13,0.00
2014-12-29,66.5,59.6,56.5,64.7,58.3,55.4,96,95,91,30.12,30.03,10,2,10,0.18
2014-12-30,56.6,50.7,41.6,55.5,48.9,38.9,96,93,89,30.45,30.11,10,1,12,0.00
2014-12-31,51.7,42.6,33.3,39.0,36.2,32.0,95,79,54,30.51,30.39,8,1,8,0.00
2015-1-1,60.1,43.8,30.3,44.7,36.7,27.9,96,79,47,30.42,30.29,4,0,5,0.01
2015-1-2,62.6,55.2,49.0,51.8,47.4,44.3,92,76,53,30.38,30.30,5,0,5,0.00